AirNav  
 
 901 users online  

8D1 New Holstein Municipal Airport
New Holstein, Wisconsin, USA

GOING TO NEW HOLSTEIN?


FAA INFORMATION EFFECTIVE 25 MARCH 2021

Location

FAA Identifier: 8D1
Lat/Long: 43-56-38.7765N 088-06-53.4301W
43-56.646275N 088-06.890502W
43.9441046,-88.1148417
(estimated)
Elevation: 992.2 ft. / 302.4 m (surveyed)
Variation: 03W (2010)
From city: 1 mile W of NEW HOLSTEIN, WI
Time zone: UTC -5 (UTC -6 during Standard Time)
Zip code: 53061

Airport Operations

Airport use: Open to the public
Activation date: 09/1958
Control tower: no
ARTCC: CHICAGO CENTER
FSS: GREEN BAY FLIGHT SERVICE STATION
NOTAMs facility: GRB (NOTAM-D service available)
Attendance: UNATNDD
Wind indicator: lighted
Segmented circle: yes
Lights: ACTVT REIL RWY 14 & 32; PAPI RWY 14 & 32; MIRL RWY 14/32 - CTAF.
Beacon: white-green (lighted land airport)
Operates sunset to sunrise.

Airport Communications

CTAF/UNICOM: 123.0
MILWAUKEE APPROACH: 127.0
MILWAUKEE DEPARTURE: 127.0
WX ASOS at SBM (15 nm SE): 118.425 (920-467-0744)
WX ASOS at FLD (19 nm SW): 134.0 (920-922-4444)
WX ASOS at OSH (19 nm W): PHONE 920-426-1644

Nearby radio navigation aids

VOR radial/distance  VOR name  Freq  Var
OSHr096/19.2OSHKOSH VORTAC116.7502E
BJBr002/(31.3)WEST BEND VOR109.8001W
GRBr174/36.8GREEN BAY VORTAC115.5001E

Airport Services

Fuel available: 100LL
24 HR SELF SERVICE FUEL WITH CREDIT CARD. ATTENDED 0800-1500 FRI-SUN.
Parking: hangars and tiedowns
Airframe service: MAJOR
Powerplant service: MAJOR

Runway Information

Runway 14/32

Dimensions: 3600 x 75 ft. / 1097 x 23 m
Surface: asphalt, in excellent condition
Weight bearing capacity: 
Single wheel: 20.0
Runway edge lights: medium intensity
RUNWAY 14  RUNWAY 32
Latitude: 43-56.885717N43-56.423222N
Longitude: 088-07.064270W088-06.553188W
Elevation: 976.6 ft.976.5 ft.
Traffic pattern: leftleft
Runway heading: 144 magnetic, 141 true324 magnetic, 321 true
Markings: nonprecision, in good conditionnonprecision, in good condition
Visual slope indicator: 2-light PAPI on left (3.20 degrees glide path)2-light PAPI on left (3.00 degrees glide path)
Runway end identifier lights: yesyes
Touchdown point: yes, no lightsyes, no lights

Runway 4/22

Dimensions: 2951 x 250 ft. / 899 x 76 m
Surface: turf, in fair condition
Operational restrictions: CLSD NOV 1 THRU MAY 1.
RUNWAY 4  RUNWAY 22
Latitude: 43-56.454092N43-56.818463N
Longitude: 088-07.212500W088-06.768013W
Elevation: 992.1 ft.973.6 ft.
Traffic pattern: leftright
Runway heading: 044 magnetic, 041 true224 magnetic, 221 true
Markings: nonenone
Runway end identifier lights: nono
Touchdown point: yes, no lightsyes, no lights
Obstructions: none93 ft. trees, 1400 ft. from runway, 250 ft. right of centerline, 15:1 slope to clear

Airport Ownership and Management from official FAA records

Ownership: Publicly-owned
Owner: CITY OF NEW HOLSTEIN
2110 WASHINGTON ST
NEW HOLSTEIN, WI 53061
Phone 920-898-5766
Manager: CASSANDRA LAGENFELD
2110 WISCONSIN ST
NEW HOLSTEIN, WI 53061
Phone 920-898-5766
EX 3.

Airport Operational Statistics

Aircraft based on the field: 19
Single engine airplanes: 19
    
Aircraft operations: avg 22/day *
51% local general aviation
44% transient general aviation
3% military
3% air taxi
* for 12-month period ending 10 June 2020

Additional Remarks

A55-32 +7 FT TRRN 140 FT R OF CNTRLN.
NUMEROUS BIRDS INVOF ARPT.
FOR CD CTC CHICAGO ARTCC AT 630-906-8921.

Instrument Procedures

NOTE: All procedures below are presented as PDF files. If you need a reader for these files, you should download the free Adobe Reader.

NOT FOR NAVIGATION. Please procure official charts for flight.
FAA instrument procedures published for use from 25 March 2021 at 0901Z to 22 April 2021 at 0900z.

 
IAPs - Instrument Approach Procedures
RNAV (GPS) RWY 14   download (244KB)
RNAV (GPS) RWY 32   download (257KB)
NOTE: Special Take-Off Minimums/Departure Procedures apply   download (201KB)

Other nearby airports with instrument procedures:

KSBM - Sheboygan County Memorial Airport (15 nm SE)
KFLD - Fond Du Lac County Airport (19 nm SW)
KOSH - Wittman Regional Airport (19 nm W)
KMTW - Manitowoc County Airport (22 nm NE)
KATW - Appleton International Airport (26 nm NW)
 
Loc | Ops | Rwys | IFR | FBO | Links
Com | Nav | Svcs | Stats | Notes
Area around 8D1 (New Holstein Municipal Airport)
 
Road maps at: MapQuest Bing Google
 
Aerial photo
WARNING: Photo may not be current or correct
Aerial photo of 8D1 (New Holstein Municipal Airport)
Do you have a better or more recent aerial photo of New Holstein Municipal Airport that you would like to share? If so, please send us your photo.

 
Sectional chart

 
Airport distance calculator
Flying to New Holstein Municipal Airport? Find the distance to fly.

From to 8D1

Sunrise and sunset
Times for 14-Apr-2021
 Local
(UTC-5)
 Zulu
(UTC)
Morning civil twilight05:4210:42
Sunrise06:1211:12
Sunset19:3400:34
Evening civil twilight20:0401:04

Current date and time
Zulu (UTC)  15-Apr-2021 03:01:55
Local (UTC-5)  14-Apr-2021 22:01:55
 
METAR
KSBM 
15nm SE 
150253Z AUTO 27008KT 10SM OVC055 04/M02 A3001 RMK AO2 SLP170 T00391022 58002
KOSH 
19nm W 
150253Z 26007KT 10SM FEW031 OVC055 03/M02 A3002 RMK AO2 SLP175 T00331017 57002
KFLD 
19nm SW 
150253Z AUTO 26007KT 10SM SCT037 OVC045 04/M02 A3003 RMK AO2 SLP177 T00391022 58000
KMTW 
22nm NE 
150256Z AUTO 29011KT 10SM OVC048 04/00 A3001 RMK AO2 SLP167 T00440000 50000
KATW 
25nm NW 
150245Z 28011KT 10SM -RA BKN020 02/M02 A3000
TAF
KSBM 
15nm SE 
142147Z 1422/1518 28012KT P6SM BKN040 FM150600 31010KT P6SM OVC030 FM150700 32010KT P6SM OVC035 FM150900 32011KT P6SM OVC030 FM151300 33013KT P6SM BKN035
NOTAMs
Click for the latest NOTAMs
NOTAMs are issued by the DoD/FAA and will open in a separate window not controlled by AirNav.

 

 
 

FBO, Fuel Providers, and Aircraft Ground Support

  
 Business Name 
 
 Contact 
 
 Services / Description 
 
Fuel Prices
 
Comments
  
Welch's Aviation Service, LLC 920-219-0015
920-898-5766
Airport management, Aviation fuel

More info about Welch's Aviation Service, LLC
100LL
SS $4.40 
 Updated 07-Apr-2021
 
   1 read write
SS=Self service
Update Fuel Prices
 

Would you like to see your business listed on this page?

 If your business provides an interesting product or service to pilots, flight crews, aircraft, or users of the New Holstein Municipal Airport, you should consider listing it here.  To start the listing process, click on the button below
 
Add a business
 

Other Pages about New Holstein Municipal Airport

www.ci.newholstein.wi.gov/city-departments.html?deptID=16
Page from the Wisconsin airport directory (PDF)
 
Update a link
 
Copyright © AirNav, LLC. All rights reserved. Privacy Policy  Contact